{"data":{"norad_id":57651,"epoch":"2026-05-25T00:24:18.970272Z","epoch_age_seconds":69621,"freshness":"FRESH","line1":"1 57651U 23122V   26145.01688623 -.00000427  00000+0 -60197-5 0  9998","line2":"2 57651  43.0002  10.1409 0000869  16.9130 343.1750 15.27563441154015","mean_motion":15.27563441,"eccentricity":8.69e-5,"inclination_deg":43.0002,"raan_deg":10.1409,"arg_perigee_deg":16.913,"mean_anomaly_deg":343.175,"bstar":-6.0197e-6,"rev_number":15401,"period_min":94.267770578309,"perigee_km":482.50243871003,"apogee_km":483.69492147123,"semimajor_km":6861.2356800906,"source":"CELESTRAK","updated_at":"2026-05-25T13:38:18.365964Z"}}